When you browse on this site, cookies collect data to enhance your experience and personalize the content and advertising you see.
Visit our Privacy Policy to learn more. By continuing to use the site, you agree to this use of cookies and data.
  • In Slovakia
  • List of Countries
  • For 7 days
  • Water Temperature
  • Satellite Maps
  • Weather Map
  • Weather Widgets
  • user-avatar
    Login

    Hourly Weather Yeghegnadzor

    Today, 23 January, Wednesday

    Time Temperature Precipitation Wind Pressure Humidity
    00:00 -6°C° 0 mm 2 mps 650 mmHg 65%
    01:00 -6°C° 0 mm 2 mps 650 mmHg 65%
    02:00 -6°C° 0 mm 2 mps 650 mmHg 65%
    03:00 -6°C° 0 mm 2 mps 650 mmHg 67%
    04:00 -6°C° 0 mm 2 mps 650 mmHg 67%
    05:00 -6°C° 0 mm 2 mps 650 mmHg 67%
    06:00 -7°C° 0 mm 2 mps 650 mmHg 67%
    07:00 -5°C° 0 mm 2 mps 651 mmHg 66%
    08:00 -4°C° 0 mm 2 mps 651 mmHg 66%
    09:00 -3°C° 0 mm 2 mps 652 mmHg 65%
    10:00 -2°C° 0 mm 2 mps 652 mmHg 64%
    11:00 -1°C° 0 mm 2 mps 652 mmHg 63%
    12:00 +2°C° 0 mm 2 mps 652 mmHg 62%
    13:00 +2°C° 0 mm 2 mps 652 mmHg 63%
    14:00 +2°C° 0 mm 2 mps 652 mmHg 64%
    15:00 +2°C° 0 mm 2 mps 652 mmHg 65%
    16:00 -1°C° 0 mm 2 mps 652 mmHg 65%
    17:00 -3°C° 0 mm 2 mps 651 mmHg 65%
    18:00 -4°C° 0 mm 2 mps 651 mmHg 65%
    19:00 -5°C° 0 mm 2 mps 652 mmHg 64%
    20:00 -5°C° 0 mm 2 mps 652 mmHg 63%
    21:00 -5°C° 0 mm 2 mps 652 mmHg 61%
    22:00 -5°C° 0 mm 2 mps 652 mmHg 64%
    23:00 -5°C° 0 mm 2 mps 652 mmHg 66%

    Tomorrow, 24 January, Thursday

    Time Temperature Precipitation Wind Pressure Humidity
    00:00 -5°C° 0 mm 2 mps 652 mmHg 68%
    01:00 -6°C° 0 mm 2 mps 652 mmHg 70%
    02:00 -6°C° 0 mm 2 mps 652 mmHg 72%
    03:00 -6°C° 0 mm 2 mps 652 mmHg 74%
    04:00 -6°C° 0 mm 2 mps 652 mmHg 75%
    05:00 -6°C° 0 mm 2 mps 652 mmHg 75%
    06:00 -6°C° 0 mm 2 mps 652 mmHg 76%
    07:00 -5°C° 0 mm 2 mps 653 mmHg 75%
    08:00 -4°C° 0 mm 2 mps 653 mmHg 74%
    09:00 -3°C° 0 mm 2 mps 653 mmHg 73%
    10:00 -2°C° 0 mm 2 mps 653 mmHg 71%
    11:00 +1°C° 0 mm 2 mps 653 mmHg 70%
    12:00 +2°C° 0 mm 2 mps 653 mmHg 69%
    13:00 +2°C° 0 mm 2 mps 652 mmHg 69%
    14:00 +2°C° 0 mm 2 mps 652 mmHg 69%
    15:00 +2°C° 0 mm 2 mps 652 mmHg 69%
    16:00 +1°C° 0 mm 2 mps 652 mmHg 70%
    17:00 -2°C° 0 mm 2 mps 651 mmHg 71%
    18:00 -3°C° 0 mm 2 mps 651 mmHg 72%
    19:00 -3°C° 0 mm 2 mps 651 mmHg 70%
    20:00 -4°C° 0 mm 2 mps 651 mmHg 69%
    21:00 -4°C° 0 mm 2 mps 651 mmHg 67%
    22:00 -4°C° 0 mm 2 mps 651 mmHg 67%
    23:00 -5°C° 0 mm 3 mps 651 mmHg 68%

    Day after tomorrow, 25 January, Friday

    Time Temperature Precipitation Wind Pressure Humidity
    00:00 -5°C° 0 mm 3 mps 651 mmHg 68%
    01:00 -5°C° 0 mm 3 mps 651 mmHg 68%
    02:00 -5°C° 0 mm 3 mps 651 mmHg 68%
    03:00 -4°C° 0 mm 3 mps 650 mmHg 69%
    04:00 -4°C° 0 mm 3 mps 650 mmHg 69%
    05:00 -3°C° 0 mm 2 mps 650 mmHg 70%
    06:00 -2°C° 0 mm 2 mps 649 mmHg 71%
    07:00 -2°C° 0 mm 2 mps 650 mmHg 72%
    08:00 -1°C° 0 mm 2 mps 650 mmHg 73%
    09:00 -1°C° 0 mm 2 mps 650 mmHg 74%
    10:00 +1°C° 0.1 mm 2 mps 650 mmHg 75%
    11:00 +2°C° 0.1 mm 2 mps 650 mmHg 75%
    12:00 +3°C° 0.1 mm 2 mps 650 mmHg 76%
    13:00 +3°C° 0 mm 2 mps 650 mmHg 76%
    14:00 +3°C° 0 mm 2 mps 650 mmHg 76%
    15:00 +3°C° 0 mm 2 mps 649 mmHg 76%
    16:00 +2°C° 0 mm 2 mps 649 mmHg 79%
    17:00 +1°C° 0 mm 2 mps 649 mmHg 81%
    18:00 -2°C° 0 mm 2 mps 649 mmHg 84%
    19:00 -2°C° 0 mm 2 mps 649 mmHg 83%
    20:00 -2°C° 0 mm 2 mps 650 mmHg 83%
    21:00 -2°C° 0 mm 2 mps 650 mmHg 83%
    22:00 -2°C° 0 mm 2 mps 650 mmHg 83%
    23:00 -2°C° 0 mm 2 mps 650 mmHg 83%

    26 January, Saturday

    Time Temperature Precipitation Wind Pressure Humidity
    00:00 -2°C° 0 mm 2 mps 650 mmHg 83%
    01:00 -3°C° 0 mm 2 mps 650 mmHg 83%
    02:00 -3°C° 0 mm 2 mps 650 mmHg 82%
    03:00 -3°C° 0 mm 2 mps 649 mmHg 81%
    04:00 -3°C° 0 mm 2 mps 649 mmHg 80%
    05:00 -3°C° 0 mm 2 mps 649 mmHg 78%
    06:00 -4°C° 0 mm 3 mps 649 mmHg 77%
    07:00 -2°C° 0 mm 3 mps 650 mmHg 74%
    08:00 -1°C° 0 mm 3 mps 650 mmHg 72%
    09:00 0°C° 0 mm 3 mps 650 mmHg 70%
    10:00 +1°C° 0 mm 3 mps 650 mmHg 70%
    11:00 +2°C° 0 mm 3 mps 650 mmHg 70%
    12:00 +3°C° 0 mm 4 mps 650 mmHg 70%
    13:00 +4°C° 0 mm 3 mps 649 mmHg 68%
    14:00 +4°C° 0 mm 3 mps 649 mmHg 67%
    15:00 +4°C° 0 mm 3 mps 648 mmHg 66%
    16:00 +3°C° 0 mm 3 mps 648 mmHg 66%
    17:00 +1°C° 0 mm 3 mps 648 mmHg 66%
    18:00 0°C° 0 mm 3 mps 648 mmHg 67%
    19:00 0°C° 0 mm 3 mps 648 mmHg 69%
    20:00 0°C° 0 mm 3 mps 648 mmHg 72%
    21:00 0°C° 0 mm 3 mps 648 mmHg 74%
    22:00 +1°C° 0.1 mm 3 mps 648 mmHg 78%
    23:00 +1°C° 0.1 mm 3 mps 648 mmHg 82%

    27 January, Sunday

    Time Temperature Precipitation Wind Pressure Humidity
    00:00 +2°C° 0.1 mm 3 mps 648 mmHg 86%
    01:00 +1°C° 0.1 mm 3 mps 648 mmHg 88%
    02:00 +1°C° 0.1 mm 3 mps 648 mmHg 89%
    03:00 +1°C° 0.1 mm 3 mps 647 mmHg 91%
    04:00 +1°C° 0 mm 3 mps 647 mmHg 91%
    05:00 +1°C° 0 mm 3 mps 647 mmHg 90%
    06:00 +1°C° 0 mm 3 mps 647 mmHg 89%
    07:00 +2°C° 0.1 mm 3 mps 647 mmHg 87%
    08:00 +2°C° 0.1 mm 3 mps 647 mmHg 84%
    09:00 +3°C° 0.1 mm 3 mps 647 mmHg 81%
    10:00 +4°C° 0.1 mm 3 mps 647 mmHg 83%
    11:00 +4°C° 0.1 mm 4 mps 647 mmHg 84%
    12:00 +5°C° 0.1 mm 4 mps 646 mmHg 85%
    13:00 +5°C° 0.1 mm 4 mps 646 mmHg 85%
    14:00 +5°C° 0.1 mm 4 mps 646 mmHg 85%
    15:00 +5°C° 0.1 mm 4 mps 646 mmHg 85%
    16:00 +4°C° 0 mm 4 mps 646 mmHg 86%
    17:00 +3°C° 0 mm 4 mps 646 mmHg 87%
    18:00 +2°C° 0 mm 3 mps 646 mmHg 87%
    19:00 +2°C° 0 mm 3 mps 647 mmHg 87%
    20:00 +2°C° 0 mm 3 mps 647 mmHg 86%
    21:00 +3°C° 0 mm 3 mps 648 mmHg 86%
    22:00 +2°C° 0 mm 3 mps 648 mmHg 86%
    23:00 +2°C° 0 mm 3 mps 648 mmHg 85%

    28 January, Monday

    Time Temperature Precipitation Wind Pressure Humidity
    00:00 +2°C° 0 mm 3 mps 648 mmHg 85%
    01:00 +2°C° 0 mm 3 mps 648 mmHg 84%
    02:00 +1°C° 0 mm 3 mps 648 mmHg 83%
    03:00 +1°C° 0 mm 3 mps 648 mmHg 82%
    04:00 +1°C° 0 mm 3 mps 647 mmHg 79%
    05:00 0°C° 0 mm 3 mps 647 mmHg 77%
    06:00 0°C° 0 mm 3 mps 646 mmHg 74%
    07:00 +1°C° 0 mm 3 mps 646 mmHg 72%
    08:00 +3°C° 0 mm 2 mps 646 mmHg 70%
    09:00 +4°C° 0 mm 2 mps 646 mmHg 67%
    10:00 +6°C° 0.1 mm 1 mps 646 mmHg 69%
    11:00 +6°C° 0.1 mm 1 mps 646 mmHg 72%
    12:00 +7°C° 0.1 mm 1 mps 646 mmHg 74%
    13:00 +6°C° 0.8 mm 1 mps 645 mmHg 77%
    14:00 +6°C° 0.8 mm 1 mps 645 mmHg 81%
    15:00 +4°C° 0.8 mm 2 mps 645 mmHg 84%
    16:00 +4°C° 1.2 mm 1 mps 645 mmHg 86%
    17:00 +4°C° 1.2 mm 1 mps 645 mmHg 87%
    18:00 +3°C° 1.2 mm 1 mps 645 mmHg 89%
    19:00 +3°C° 0.5 mm 1 mps 646 mmHg 90%
    20:00 +3°C° 0.5 mm 1 mps 646 mmHg 91%
    21:00 +2°C° 0.5 mm 1 mps 647 mmHg 91%
    22:00 +2°C° 0.1 mm 1 mps 647 mmHg 92%
    23:00 +1°C° 0.1 mm 1 mps 648 mmHg 93%
    Show more